Tracking 35237 objects as of 6-Sep-2026
HD Live streaming from Space Station
objects crossing your sky now

YUNHAI 1-02 DEB


10-day predictions


NORAD ID: 48197
Int'l Code: 2019-063R
Launch date: September 25, 2019
Source: People's Republic of China (PRC)
Launch site: Jiuquan Satellite Launch Center, China (JSC)

Note: This is SATELLITE DEBRIS
Your satellite tracking list
Your tracking list is empty




NASA's NSSDC Master Catalog

Two Line Element Set (TLE):
1 48197U 19063R   21364.51174916  .00006174  00000-0  24006-2 0  9990
2 48197  98.7816  28.4483 0069246 336.5226  23.2798 14.28860113 40170
Source of the keplerian elements: AFSPC